Regional Weather Roundup
Issued by NWS

Home | Current Version | Previous Version | Text Only | Print | Product List | Glossary Off
Versions: 1 2 3 4 5 6 7 8 9 10 11 12 13 14 15 16 17 18 19 20 21 22 23 24 25 26 27 28 29 30 31 32 33 34 35 36 37 38 39 40 41 42 43 44 45 46 47 48 49 50

000
ASUS45 KCYS 271910
RWRWY

WYOMING REGIONAL WEATHER ROUNDUP
NATIONAL WEATHER SERVICE CHEYENNE WY
100 PM MDT MON JUL 27 2015

NOTE:  "FAIR" INDICATES FEW OR NO CLOUDS BELOW 12,000 FEET
WITH NO SIGNIFICANT WEATHER AND/OR OBSTRUCTIONS TO VISIBILITY.

WYZ001-272000-
YELLOWSTONE NATIONAL PARK

CITY           SKY/WX    TMP DP  RH WIND       PRES   REMARKS
LK YELLOWSTONE   N/A     59  40  49 W16G28    30.05R
W YELLOWSTONE  NOT AVBL

$$
WYZ002>013-054>058-071-098>099-272000-
NORTHERN WYOMING

CITY           SKY/WX    TMP DP  RH WIND       PRES   REMARKS
JACKSON        FAIR      61  43  51 W24G40    29.98R
CODY           FAIR      70  54  56 NE12G18   29.81F
GREYBULL       FAIR      81  46  29 SW5       29.70F
WORLAND        FAIR      82  48  30 N7        29.71F
SHERIDAN       FAIR      76  53  44 NW12      29.78F
BUFFALO        FAIR      76  51  41 N16G26    29.82F
GILLETTE       FAIR      89  49  25 N7        29.73F
HULETT         FAIR      86  46  25 SE16G26   29.77F
NEWCASTLE      FAIR      90  41  18 CALM      29.78F

$$
WYZ014>020-022>026-101>103-272000-
CENTRAL WYOMING

CITY           SKY/WX    TMP DP  RH WIND       PRES   REMARKS
BIG PINEY      FAIR      77  30  17 SW25G33   29.95S
PINEDALE       FAIR      77  23  13 S21G30    29.94S
DUBOIS         FAIR      77  23  13 SW14G24   29.88F
LANDER         FAIR      87  28  12 SW22G40   29.78F
RIVERTON       FAIR      89  28  11 S26G38    29.78F
CASPER         FAIR      90  35  14 S18G24    29.81F
DOUGLAS        FAIR      94  39  14 VRB6G20   29.81F HX  90

$$
WYZ021-027>030-104>119-272000-
SOUTHERN WYOMING

CITY           SKY/WX    TMP DP  RH WIND       PRES   REMARKS
EVANSTON       FAIR      68  39  34 W25G36    30.07R
KEMMERER       FAIR      70  34  26 W30G39    30.02R
FORT BRIDGER   CLEAR     77  32  19 W29G43    30.03R
ROCK SPRINGS   FAIR      83  28  13 SW36G44   29.92F
DIXON          CLOUDY    74  46  36 SW13G22   29.99F
RAWLINS        FAIR      84  35  17 SW31G37   29.95F
SARATOGA       FAIR      86  34  15 MISG      30.00F
LARAMIE        FAIR      83  39  21 S18       30.04F
CHEYENNE       FAIR      90  44  20 SW12G17   29.95F
TORRINGTON     FAIR      92  62  36 SE10      29.79F HX  92
PINE BLUFFS    FAIR      90  46  22 W3        29.89F

$$



USA.gov is the U.S. government's official web portal to all federal, state and local government web resources and services.